Retour au catalogue

WESTAR 3

ActifCommunicationsGEO
NORAD 11484·PAYLOAD·🇺🇸 United States

Lancé Aug 10, 1979 depuis Cape Canaveral Space Force Station

Loading…

TLE

FraisSource: Space-Track

Époque: Sep 14, 2026, 14:15 UTC

1 11484U 79072A   26257.59390775 -.00000218  00000-0  00000-0 0  9992
2 11484  10.1194 320.5948 0002954 298.4792  42.9968  0.99937772141409

Suivez WESTAR 3 en temps réel avec AllMySat

Download on the App Store